Vorticity
17 18 19 19 17 12 10 11 12 14 15 12 9 9 9 10 12 14 15 15 14 15 15 14 13 13 14 15 15 14 14 13 11 9 10 12 11 10 9 4 3 8 13 14 17 15 12 12 14 14 14 11 9 6 4 4 4 5 8 11 13 14 15 15 16 15 13 9 7 6 5 5 9 13 14 14 13 13 12 12 12 12 12 11 10
17 17 18 19 19 16 13 12 13 14 16 18 16 12 10 9 10 12 13 15 15 14 15 16 15 14 13 13 15 16 16 15 15 14 10 6 3 5 10 11 5 5 11 12 9 5 1 -0 0 1 4 7 7 8 10 11 14 17 17 12 9 8 10 11 11 12 11 11 11 11 12 13 14 14 14 14 14 13 13 12 11 10 8 8 8
21 20 18 18 18 17 15 14 14 15 16 19 21 18 15 12 10 10 11 13 15 16 15 15 16 16 15 13 12 13 15 15 14 15 15 13 9 2 0 3 2 -1 -1 -2 -4 -4 -5 -5 -4 1 7 12 13 13 11 9 8 8 5 1 3 8 12 13 14 15 15 14 15 16 17 16 16 15 15 15 13 11 10 9 8 8 7 8 8
22 22 22 19 18 19 18 17 15 16 17 19 22 22 19 16 13 11 11 11 13 15 15 14 14 15 16 16 15 13 12 12 12 14 14 14 16 14 9 5 3 2 2 1 -0 -0 0 1 4 8 9 9 7 3 1 1 2 3 5 8 12 15 17 17 17 17 16 16 17 17 16 15 15 14 13 11 9 7 7 7 8 9 9 8 8
20 21 22 20 21 22 21 20 18 18 18 20 23 23 20 18 17 14 13 12 12 14 15 14 13 14 13 13 15 18 16 12 9 10 15 18 18 19 19 16 12 8 6 6 7 7 11 14 15 15 11 7 3 -0 1 4 7 10 14 16 17 18 18 18 18 17 16 16 15 14 13 12 11 9 8 7 8 8 8 8 8 9 9 9 9
19 20 20 20 23 26 25 22 20 19 20 20 22 24 21 17 17 16 14 14 14 14 15 14 13 15 16 14 10 10 15 19 17 8 3 5 8 10 13 15 15 14 13 13 12 11 11 10 9 10 9 7 6 8 12 14 17 19 20 19 19 19 19 18 16 15 13 12 11 10 8 7 6 7 7 7 8 9 9 10 10 10 9 8 8
19 20 21 19 20 25 27 24 20 18 20 21 21 22 22 17 15 16 16 14 13 13 14 14 11 8 12 20 22 15 8 8 15 21 15 8 8 9 12 15 14 11 9 8 7 4 2 1 3 6 7 9 14 20 24 25 24 22 19 19 19 18 16 14 11 10 9 8 8 7 6 7 8 8 8 9 9 9 9 8 8 8 8 8 8
19 21 21 19 17 21 23 19 17 17 18 19 19 19 20 18 15 15 16 15 15 15 13 15 14 2 -5 -1 9 23 29 16 3 7 13 12 10 8 7 8 7 5 5 7 9 10 9 10 10 11 14 18 21 22 22 21 19 18 17 17 15 12 10 8 7 7 7 7 7 8 8 9 9 9 10 10 9 9 8 7 5 4 5 7 8
18 20 22 21 15 16 18 14 11 12 15 17 18 17 18 19 17 16 16 15 15 16 14 16 17 9 -3 -9 -9 6 33 41 30 20 17 15 13 14 16 19 20 22 23 23 24 24 24 23 21 21 23 23 21 18 16 15 14 12 11 9 8 7 6 7 7 7 7 8 8 9 9 9 10 10 9 8 7 6 6 6 7 6 6 6 8
18 19 22 24 18 11 15 17 12 12 16 17 16 17 18 19 17 16 17 17 16 17 17 17 19 17 8 5 5 -1 0 15 31 35 33 30 27 25 26 28 27 25 23 23 23 24 26 26 26 25 23 19 17 16 13 11 9 7 7 7 7 7 7 8 8 8 9 9 10 10 10 9 8 7 6 6 6 6 6 7 7 8 8 8 9
16 19 21 27 24 12 9 16 17 16 18 17 16 18 19 18 17 16 16 17 17 18 19 19 21 24 17 11 14 11 0 -1 8 14 17 20 20 18 18 19 19 19 19 19 20 20 20 19 18 17 15 13 12 10 8 7 7 7 8 8 8 8 9 9 9 10 10 9 9 8 7 7 7 6 5 6 6 6 8 8 8 9 9 9 10
13 17 19 25 29 19 8 8 15 19 19 17 17 18 18 16 16 16 16 18 20 21 23 23 23 27 29 24 22 22 19 17 15 14 15 16 17 18 18 19 19 20 20 19 18 16 15 13 12 10 9 8 7 7 7 8 8 8 8 8 9 9 9 9 9 8 8 7 7 6 5 6 7 7 6 6 7 8 9 9 10 11 10 10 10
12 15 17 18 27 29 14 3 10 19 16 13 13 16 18 17 16 20 20 17 19 20 21 23 23 23 25 26 25 24 22 22 22 20 20 18 18 18 16 15 14 12 11 10 9 8 8 8 8 8 7 8 8 8 9 8 8 9 9 9 9 9 9 9 9 8 8 8 7 7 6 5 6 7 8 8 8 9 9 10 10 10 10 11 11
16 17 16 14 20 31 24 6 5 12 11 11 13 13 15 16 15 20 21 15 11 12 13 16 18 19 20 19 20 22 20 19 18 17 16 16 14 12 10 9 8 7 7 7 7 8 9 9 9 9 8 8 8 8 9 9 10 10 9 9 9 9 9 8 8 7 7 6 6 7 7 6 6 7 7 8 8 9 9 10 10 11 11 11 11
21 18 15 13 15 26 30 15 2 3 8 11 11 10 12 15 12 13 17 15 12 9 9 11 11 10 12 12 11 11 10 9 9 8 8 8 7 7 7 7 7 7 8 8 8 9 9 8 9 8 8 9 9 9 10 9 9 9 9 9 9 8 8 7 7 6 6 6 6 6 7 8 8 8 8 9 10 11 11 11 11 11 10 9 9
22 16 12 14 15 21 29 22 5 1 7 10 12 13 13 13 12 12 14 14 15 14 11 11 11 10 9 7 6 6 6 6 7 7 7 7 7 7 7 8 8 9 9 9 9 9 8 8 8 8 8 9 9 9 9 8 8 8 8 8 8 7 6 6 5 5 6 7 7 7 8 9 9 10 11 11 11 10 10 10 9 10 9 9 8
20 15 11 15 17 17 24 23 11 6 7 8 11 10 6 8 11 9 7 7 9 11 12 11 12 11 10 10 9 9 9 8 9 10 9 9 9 8 9 9 10 9 9 9 8 8 8 8 8 8 9 9 9 9 8 8 8 8 8 7 6 6 5 6 6 7 7 7 7 8 8 9 9 10 10 10 11 10 10 9 9 9 8 7 7
18 15 12 16 18 17 20 20 14 11 8 4 9 8 2 11 17 5 -1 5 9 9 9 9 9 9 9 11 11 10 10 10 10 11 11 12 12 12 12 11 10 9 9 9 9 9 9 9 9 9 9 8 9 8 7 8 8 7 6 6 6 7 7 7 7 7 6 7 7 7 8 8 9 9 9 10 10 10 10 9 9 8 8 8 8
18 16 14 17 19 17 18 18 14 16 12 3 8 12 6 10 16 6 -0 4 10 14 13 9 9 11 9 9 9 9 8 8 8 10 11 12 13 12 11 11 9 9 9 9 9 9 9 9 9 8 8 8 8 8 8 9 8 7 7 7 7 7 7 6 6 7 8 8 8 9 9 9 8 8 8 8 8 8 8 7 7 8 8 8 9
18 16 14 18 21 16 16 18 16 17 16 6 4 9 8 6 5 3 5 6 6 12 16 12 11 10 8 8 8 7 7 7 8 10 11 11 12 11 10 9 9 9 10 10 10 10 10 9 8 8 9 8 8 9 8 7 7 7 7 7 7 7 7 7 8 8 9 9 9 10 9 9 9 9 9 9 9 9 9 8 9 9 9 10 11
18 17 14 18 21 15 13 20 18 13 15 14 8 5 4 3 0 1 8 9 4 2 4 6 10 10 8 9 9 8 9 10 9 11 11 11 10 9 9 9 9 9 10 10 9 8 7 7 8 8 8 8 8 8 7 7 7 7 6 6 6 7 7 8 9 9 9 9 9 9 9 9 9 9 10 10 10 10 10 10 11 12 13 14 15
17 17 15 16 20 16 11 17 21 15 10 12 16 15 8 5 6 8 6 4 2 1 0 4 10 12 9 8 9 10 11 10 9 10 10 9 9 8 9 9 9 9 8 8 7 7 7 8 9 9 9 8 7 6 6 7 7 6 6 7 7 7 8 8 8 8 8 8 8 7 8 8 8 9 10 9 9 9 9 10 12 14 15 16 17
17 17 14 14 18 16 11 13 19 20 14 8 10 16 15 10 8 9 9 5 2 2 2 3 6 7 7 6 6 7 9 9 8 8 9 9 8 8 8 8 8 7 7 6 7 8 9 9 9 8 8 7 6 7 7 7 7 7 7 7 7 8 7 7 7 7 7 7 7 7 7 8 9 9 9 9 9 9 10 11 13 13 13 14 17
18 17 13 14 18 17 12 11 14 18 19 13 7 8 13 15 9 7 15 19 11 3 2 0 1 5 5 2 1 4 7 8 9 10 10 10 10 9 9 8 8 8 8 8 9 10 9 9 8 7 7 6 7 7 7 7 7 7 7 7 7 6 6 6 6 7 7 7 6 7 8 9 9 8 8 9 10 10 12 14 15 15 15 17 20
17 17 13 12 16 18 14 11 13 16 18 18 14 10 10 14 12 7 10 15 12 9 6 3 5 10 7 0 0 4 6 8 11 11 10 9 9 9 9 8 8 8 9 10 10 10 9 8 7 7 7 7 8 7 7 7 7 6 6 6 5 5 5 6 6 7 7 6 6 7 8 8 8 9 10 11 12 13 15 16 18 18 19 21 21
14 16 14 11 14 17 16 13 12 14 16 17 17 16 13 13 13 10 6 5 7 11 12 11 12 12 5 -1 1 6 9 12 12 10 8 9 9 9 9 9 9 10 10 10 10 8 7 7 7 7 7 7 7 6 6 6 5 5 4 4 4 5 6 6 6 6 5 5 6 8 8 9 10 10 12 14 16 16 16 18 19 19 19 19 16
12 13 13 13 13 14 17 17 14 13 15 15 15 16 16 15 14 12 9 7 9 12 14 13 11 6 1 1 6 10 12 11 9 8 9 9 9 9 10 10 10 9 9 9 8 7 6 7 7 7 7 7 6 6 6 5 4 4 4 4 5 6 6 6 6 5 5 6 7 8 9 10 10 12 14 17 18 17 18 20 21 19 17 14 9
13 13 13 14 15 13 15 17 16 15 15 16 16 16 16 17 17 15 13 11 11 10 8 6 4 2 4 8 10 11 10 8 8 10 10 9 9 10 10 9 8 8 8 7 6 6 7 7 7 6 6 6 6 5 5 5 5 5 5 6 7 6 6 6 5 4 5 7 7 9 10 11 13 15 17 18 18 19 19 19 18 15 12 9 9
11 12 13 14 15 15 14 14 15 15 14 14 15 15 15 16 16 15 12 10 8 6 5 5 6 7 9 11 10 10 9 9 9 10 9 9 10 10 9 8 7 7 7 6 6 6 7 6 6 6 6 5 5 5 5 5 5 6 7 7 6 6 6 5 4 5 7 8 10 11 12 13 16 17 17 19 21 20 18 16 14 10 8 10 15
10 10 11 12 12 13 13 13 13 13 13 12 13 14 15 15 14 12 10 9 8 8 8 8 9 10 10 10 10 10 10 10 10 10 10 10 10 8 8 8 7 6 6 6 6 7 6 6 6 6 5 5 5 5 5 5 6 6 6 5 5 6 5 4 5 7 9 10 11 12 13 16 18 17 19 22 22 18 14 12 9 7 11 17 20
9 9 10 11 12 12 13 12 12 11 12 12 12 12 13 13 12 11 10 9 9 9 8 9 9 10 9 10 10 10 10 10 10 11 11 10 8 8 8 7 6 7 6 6 6 6 6 6 6 6 5 5 6 6 6 7 6 5 6 6 7 6 4 4 6 8 10 11 12 13 16 17 17 19 22 22 18 14 11 8 7 12 19 20 18
8 8 8 10 12 12 12 12 12 11 11 10 10 11 11 10 10 10 9 9 9 9 9 9 9 9 9 10 9 9 9 10 10 10 9 8 7 7 7 7 7 7 7 7 7 7 7 7 6 6 6 6 6 7 6 6 5 5 6 7 6 5 5 6 8 10 11 12 14 16 17 18 19 23 23 18 14 11 8 8 14 20 20 17 16
9 9 8 8 10 12 12 11 11 12 12 11 10 10 9 9 9 9 9 9 9 9 10 10 10 10 9 9 8 8 9 10 9 8 8 7 7 7 7 7 7 7 7 7 7 7 7 6 6 6 6 6 6 6 5 5 6 7 7 6 4 4 6 8 11 11 12 15 17 18 19 21 23 23 18 13 10 8 8 15 21 20 17 16 18
9 11 11 9 9 10 11 11 10 11 11 11 11 10 10 10 9 9 10 10 10 10 10 9 9 9 9 8 9 9 9 9 8 8 7 7 6 7 7 7 7 7 7 8 7 7 6 6 6 6 6 5 6 6 5 6 7 7 6 4 4 6 9 10 11 13 15 18 18 19 21 23 21 17 13 9 7 10 16 21 21 16 16 19 18
8 11 13 13 11 10 11 11 11 10 10 10 10 10 10 10 10 10 10 10 10 10 9 9 10 10 10 10 10 9 9 9 8 7 7 6 6 7 8 7 7 7 7 7 7 6 6 6 6 5 5 5 6 6 7 8 8 6 5 5 6 9 10 11 12 16 18 19 19 21 23 21 16 12 9 7 10 17 21 20 17 17 18 18 16
7 9 12 12 12 11 11 11 11 10 10 10 10 10 10 10 10 10 10 9 9 9 9 10 11 11 11 10 9 8 8 8 7 7 7 6 7 7 7 7 7 8 8 7 6 6 6 6 5 5 6 6 7 7 8 7 6 5 5 6 8 10 11 12 16 19 19 20 21 22 20 15 11 9 7 10 18 22 19 16 18 19 17 15 16
8 8 9 11 12 12 11 11 11 11 11 10 10 10 10 10 10 10 10 10 10 10 10 10 11 11 10 9 8 8 8 8 8 7 6 7 7 7 6 7 8 8 6 6 5 5 6 5 6 6 7 7 7 8 7 5 5 5 7 8 10 10 12 16 19 20 21 22 22 19 14 11 8 7 10 18 22 19 15 18 21 18 14 15 17
9 7 7 9 11 11 11 11 11 11 11 11 11 10 10 10 10 10 11 11 11 11 11 10 10 10 9 7 7 8 8 7 7 6 7 7 7 6 6 8 8 7 5 5 6 5 5 6 7 7 7 8 8 7 5 5 5 6 8 9 11 13 16 20 20 21 22 21 17 14 11 8 7 11 18 22 19 16 18 20 18 15 15 17 16
12 9 8 8 10 11 11 11 11 11 11 11 11 10 10 10 10 10 11 12 12 11 10 10 10 9 8 7 8 8 7 6 6 7 8 8 6 6 7 7 6 6 6 5 5 6 6 6 7 7 8 9 7 5 4 5 6 8 9 12 14 17 20 21 21 22 21 17 13 11 8 6 11 19 21 18 16 18 21 19 15 16 17 15 14
13 11 9 9 11 12 12 11 11 11 11 10 10 10 9 9 10 10 10 10 10 10 10 10 9 8 7 7 7 6 6 7 9 9 8 7 6 7 7 6 6 6 6 6 6 7 6 7 8 9 9 7 5 5 5 7 9 11 13 15 18 19 20 21 22 20 16 12 10 8 6 10 19 22 18 15 17 20 19 16 15 16 15 14 16
13 12 11 10 11 12 13 13 13 12 11 11 11 10 10 11 12 12 11 11 10 9 9 9 8 7 7 7 6 6 7 9 10 8 7 6 6 6 6 6 6 6 6 6 7 6 6 8 9 9 7 5 5 6 8 9 11 13 15 17 19 20 21 23 20 16 12 10 7 7 11 18 21 18 15 17 19 18 17 16 15 14 14 16 18
13 12 11 11 12 12 13 13 13 12 12 11 11 11 11 12 12 12 11 10 9 8 9 9 9 8 8 7 6 7 8 8 7 6 6 6 6 6 6 7 6 6 7 7 7 7 8 9 9 7 6 6 7 9 10 11 12 15 17 19 21 22 23 20 15 11 9 7 7 11 18 20 18 16 17 18 18 17 17 15 13 14 16 18 18
13 13 13 13 13 13 13 13 12 12 12 12 11 12 12 11 11 10 9 8 8 9 9 9 9 8 8 8 7 7 6 6 5 5 5 6 6 6 6 6 6 7 7 7 7 8 9 8 7 6 6 7 9 10 11 13 16 18 20 21 23 23 20 15 11 9 7 7 12 18 21 18 15 17 18 18 18 18 16 13 14 16 18 18 20
12 13 14 14 14 14 13 12 12 12 12 12 11 11 10 9 9 9 8 9 9 9 9 9 8 8 8 7 7 6 6 6 6 5 5 5 6 6 7 7 7 7 7 7 8 9 8 7 6 7 7 9 11 11 13 16 19 20 21 23 23 20 16 11 9 7 7 12 19 20 17 15 17 18 18 19 19 17 14 14 16 18 19 20 22
12 13 14 14 14 14 14 13 12 11 10 10 9 9 8 8 9 10 10 11 10 9 8 8 8 8 8 7 7 6 6 6 6 6 6 6 7 7 7 8 7 7 8 9 9 8 7 6 7 8 9 11 13 14 17 19 20 21 23 23 20 16 12 8 6 7 11 17 20 18 16 16 18 18 18 18 16 15 15 17 18 20 22 24 22
11 12 12 12 12 12 13 13 11 10 9 9 9 9 9 10 11 11 10 10 9 8 8 8 7 8 8 7 7 7 6 7 7 8 7 7 8 8 8 8 8 9 10 9 8 7 7 7 9 11 12 13 15 17 19 20 21 22 22 19 15 11 8 6 7 12 17 19 18 16 16 17 17 17 18 16 15 16 17 18 20 24 24 21 18
11 11 12 12 11 11 11 10 9 10 10 11 11 11 11 11 10 9 8 8 8 8 8 8 8 8 8 7 7 7 7 8 9 8 8 8 8 8 8 9 10 10 9 7 6 6 8 9 11 13 14 16 18 19 20 20 21 22 19 15 12 8 6 7 12 17 19 18 16 16 17 18 18 18 16 15 16 18 19 20 24 25 21 17 14
12 13 12 12 11 10 10 10 11 11 11 11 10 10 9 8 8 8 8 8 8 8 8 9 9 8 8 8 8 8 9 9 9 8 8 8 8 8 9 10 10 8 7 6 7 8 10 12 13 15 17 18 19 20 20 21 20 19 15 11 8 6 7 12 17 19 18 17 16 17 18 19 18 16 15 17 19 20 22 25 25 20 14 12 10
11 11 11 11 11 11 11 11 11 10 9 9 9 9 9 9 9 10 10 10 10 10 9 9 9 9 9 8 8 9 9 10 9 9 9 9 9 10 10 9 8 7 7 7 9 11 12 14 16 18 19 20 20 20 20 20 18 14 11 8 6 8 12 17 19 18 17 17 17 19 19 18 17 16 17 19 21 23 25 26 21 13 9 10 11
12 11 11 11 11 11 10 10 10 10 10 11 11 11 11 11 11 11 11 10 9 10 9 9 9 9 8 8 9 9 10 9 9 9 10 10 10 10 9 7 7 7 8 10 12 13 15 17 19 20 20 20 20 19 19 17 14 11 8 6 7 13 18 19 18 16 17 18 18 18 18 17 17 16 17 20 24 26 25 20 13 9 9 11 15
13 12 12 11 11 11 11 11 11 11 11 11 11 11 11 11 10 10 10 9 9 9 9 8 8 8 8 8 9 10 9 9 9 10 10 10 9 8 7 7 8 9 11 13 14 16 18 20 20 20 19 20 19 18 16 13 10 8 7 8 13 18 19 17 16 16 17 18 18 17 18 18 17 17 20 24 25 23 18 12 9 9 12 17 20
Height
5566 5565 5563 5562 5560 5560 5559 5559 5559 5559 5559 5559 5558 5558 5558 5559 5559 5560 5561 5561 5562 5562 5563 5564 5564 5565 5566 5566 5567 5568 5569 5570 5571 5572 5573 5574 5575 5575 5575 5575 5575 5575 5575 5575 5574 5574 5573 5573 5572 5572 5571 5571 5570 5569 5568 5567 5566 5564 5563 5562 5560 5559 5558 5557 5557 5556 5554 5552 5551 5548 5546 5543 5540 5537 5535 5533 5531 5529 5527 5525 5522 5519 5516 5513 5510
5556 5554 5553 5551 5550 5550 5549 5549 5549 5549 5549 5549 5549 5549 5549 5549 5549 5550 5551 5552 5553 5553 5554 5555 5555 5556 5557 5558 5559 5559 5560 5561 5562 5563 5564 5565 5566 5566 5566 5567 5566 5566 5566 5566 5566 5566 5565 5564 5564 5563 5563 5562 5561 5560 5559 5558 5557 5555 5554 5553 5552 5550 5549 5548 5547 5546 5544 5541 5540 5538 5536 5534 5532 5529 5526 5524 5521 5519 5517 5515 5513 5510 5507 5504 5501
5547 5545 5543 5542 5541 5540 5540 5539 5540 5540 5540 5540 5540 5540 5540 5540 5540 5541 5542 5543 5544 5545 5545 5546 5547 5547 5548 5549 5550 5551 5552 5552 5553 5554 5555 5556 5557 5557 5558 5558 5558 5558 5558 5557 5557 5557 5556 5556 5555 5554 5554 5553 5552 5551 5550 5549 5548 5547 5545 5544 5543 5541 5539 5538 5536 5535 5533 5531 5529 5528 5526 5524 5523 5520 5518 5515 5513 5510 5507 5505 5503 5500 5497 5494 5491
5539 5537 5535 5534 5532 5531 5531 5530 5530 5530 5530 5531 5531 5531 5531 5531 5531 5532 5533 5533 5535 5536 5537 5538 5538 5539 5540 5540 5541 5542 5543 5544 5545 5545 5546 5547 5548 5548 5549 5549 5549 5549 5549 5549 5548 5548 5547 5547 5546 5546 5545 5544 5543 5542 5542 5540 5539 5538 5537 5535 5534 5532 5530 5528 5526 5525 5524 5522 5520 5519 5517 5515 5514 5511 5509 5506 5504 5502 5498 5495 5493 5489 5485 5483 5482
5530 5529 5527 5526 5524 5523 5522 5522 5521 5521 5521 5521 5522 5522 5522 5523 5523 5523 5524 5525 5526 5527 5528 5529 5530 5531 5532 5533 5533 5534 5535 5535 5536 5537 5538 5539 5539 5539 5540 5540 5541 5541 5541 5540 5540 5539 5539 5539 5538 5538 5537 5536 5535 5534 5533 5532 5531 5529 5528 5526 5524 5522 5521 5519 5518 5516 5515 5514 5512 5510 5509 5506 5504 5503 5500 5497 5495 5493 5489 5485 5483 5480 5474 5470 5469
5522 5520 5518 5517 5517 5516 5515 5514 5513 5513 5513 5513 5513 5513 5514 5514 5514 5515 5516 5517 5518 5519 5520 5521 5522 5523 5524 5525 5526 5526 5527 5527 5528 5529 5530 5530 5531 5531 5531 5532 5532 5532 5532 5532 5532 5531 5531 5530 5530 5529 5528 5527 5526 5525 5524 5523 5522 5521 5519 5517 5516 5514 5513 5511 5510 5509 5507 5506 5504 5502 5501 5498 5495 5493 5492 5488 5485 5483 5480 5475 5471 5469 5465 5460 5456
5515 5512 5510 5509 5509 5508 5507 5506 5506 5505 5505 5505 5505 5505 5506 5506 5507 5507 5508 5509 5510 5511 5512 5513 5515 5516 5517 5517 5518 5518 5519 5519 5520 5521 5521 5522 5522 5523 5523 5523 5524 5524 5524 5524 5524 5523 5523 5522 5521 5520 5519 5518 5517 5517 5516 5515 5514 5513 5511 5510 5508 5507 5505 5504 5503 5501 5500 5498 5496 5494 5492 5490 5488 5484 5482 5480 5476 5474 5473 5468 5463 5458 5454 5449 5445
5508 5506 5504 5502 5501 5501 5500 5500 5500 5499 5498 5498 5498 5498 5498 5499 5500 5500 5501 5502 5503 5504 5505 5506 5508 5509 5509 5510 5510 5511 5511 5511 5512 5513 5513 5514 5515 5515 5515 5515 5515 5516 5516 5515 5515 5515 5514 5514 5513 5512 5511 5511 5510 5509 5508 5507 5506 5505 5504 5503 5501 5500 5499 5497 5496 5494 5492 5491 5489 5486 5484 5482 5480 5476 5473 5470 5467 5463 5462 5461 5457 5452 5445 5438 5431
5502 5499 5498 5496 5495 5494 5494 5494 5494 5493 5492 5492 5491 5492 5492 5493 5493 5494 5494 5495 5496 5497 5498 5499 5500 5501 5502 5502 5503 5504 5504 5504 5504 5505 5506 5506 5507 5507 5507 5507 5507 5507 5507 5507 5507 5507 5506 5506 5505 5505 5504 5503 5503 5502 5501 5501 5499 5498 5497 5496 5494 5493 5491 5490 5488 5487 5485 5483 5480 5478 5476 5473 5471 5468 5464 5461 5458 5454 5451 5449 5447 5444 5439 5432 5421
5495 5493 5491 5490 5489 5488 5488 5488 5487 5487 5487 5486 5486 5486 5486 5486 5487 5487 5488 5488 5489 5490 5491 5492 5493 5494 5494 5495 5496 5497 5497 5497 5498 5498 5499 5499 5499 5499 5499 5499 5499 5500 5500 5500 5499 5499 5499 5499 5498 5498 5497 5497 5496 5495 5495 5494 5493 5491 5490 5489 5487 5486 5484 5483 5481 5479 5477 5475 5472 5469 5467 5465 5463 5460 5456 5452 5449 5445 5441 5439 5437 5433 5429 5425 5416
5490 5487 5485 5484 5483 5482 5482 5482 5482 5481 5481 5481 5481 5481 5481 5481 5481 5481 5482 5482 5483 5483 5484 5485 5486 5487 5487 5488 5489 5490 5491 5491 5492 5492 5492 5493 5493 5493 5493 5493 5493 5493 5493 5493 5493 5493 5493 5492 5492 5492 5491 5491 5490 5489 5488 5487 5486 5485 5483 5482 5481 5479 5477 5475 5473 5471 5469 5467 5465 5462 5458 5455 5454 5452 5448 5444 5440 5435 5431 5428 5427 5424 5419 5415 5410
5484 5482 5479 5477 5476 5476 5477 5477 5476 5476 5476 5475 5475 5475 5475 5475 5476 5476 5476 5476 5477 5478 5478 5479 5479 5480 5481 5482 5483 5484 5485 5485 5486 5486 5486 5487 5487 5487 5487 5487 5487 5487 5487 5487 5487 5487 5487 5487 5487 5486 5486 5485 5484 5483 5482 5481 5480 5478 5477 5476 5474 5472 5470 5468 5466 5463 5461 5459 5457 5454 5451 5447 5444 5442 5439 5436 5432 5426 5421 5418 5415 5413 5409 5404 5400
5478 5476 5473 5472 5470 5470 5471 5471 5471 5471 5471 5470 5470 5471 5471 5471 5471 5471 5471 5471 5472 5472 5473 5473 5474 5474 5475 5476 5477 5478 5478 5479 5480 5480 5480 5481 5481 5481 5481 5481 5482 5482 5482 5482 5482 5482 5482 5482 5481 5481 5480 5479 5478 5477 5476 5475 5474 5472 5470 5469 5467 5465 5464 5461 5458 5456 5453 5451 5448 5446 5444 5440 5436 5432 5430 5427 5423 5418 5412 5408 5404 5402 5399 5393 5387
5472 5470 5467 5466 5465 5464 5465 5466 5466 5466 5466 5466 5466 5466 5466 5466 5466 5466 5466 5467 5467 5468 5468 5469 5469 5470 5470 5471 5472 5472 5473 5473 5474 5474 5475 5475 5476 5476 5476 5476 5477 5477 5477 5477 5476 5476 5476 5476 5475 5474 5473 5473 5472 5471 5470 5469 5467 5466 5464 5462 5461 5459 5457 5454 5451 5449 5446 5443 5440 5437 5435 5432 5428 5424 5420 5417 5414 5409 5403 5399 5395 5392 5389 5382 5375
5466 5464 5462 5460 5459 5459 5459 5460 5461 5461 5461 5461 5461 5462 5462 5462 5462 5462 5463 5463 5463 5464 5464 5465 5465 5466 5466 5467 5467 5468 5468 5469 5469 5469 5470 5470 5470 5471 5471 5471 5471 5471 5471 5471 5471 5470 5470 5469 5469 5468 5467 5466 5465 5465 5464 5462 5461 5459 5457 5456 5454 5452 5450 5447 5444 5441 5438 5435 5432 5428 5425 5422 5419 5415 5411 5408 5404 5400 5395 5389 5385 5383 5379 5373 5366
5460 5458 5456 5455 5454 5454 5454 5454 5455 5456 5456 5457 5457 5457 5457 5458 5458 5459 5459 5459 5459 5460 5460 5460 5461 5462 5462 5463 5463 5463 5463 5464 5464 5465 5465 5465 5465 5465 5466 5466 5466 5466 5465 5465 5465 5465 5464 5464 5463 5462 5461 5460 5459 5458 5458 5456 5455 5452 5450 5449 5447 5445 5442 5440 5437 5434 5430 5427 5424 5420 5417 5413 5409 5405 5402 5398 5395 5391 5386 5381 5376 5372 5369 5364 5358
5455 5453 5451 5450 5449 5448 5448 5449 5450 5451 5451 5452 5452 5453 5453 5454 5454 5455 5455 5455 5455 5456 5456 5456 5457 5457 5458 5458 5458 5458 5459 5459 5459 5459 5459 5460 5460 5460 5460 5460 5460 5460 5460 5460 5460 5459 5458 5458 5457 5456 5455 5454 5453 5452 5451 5450 5448 5446 5444 5442 5440 5438 5435 5433 5430 5426 5423 5420 5417 5413 5409 5405 5401 5397 5393 5389 5384 5380 5376 5371 5366 5362 5358 5353 5349
5449 5448 5446 5445 5444 5444 5443 5444 5445 5446 5446 5447 5447 5448 5449 5450 5450 5451 5451 5451 5451 5452 5452 5452 5452 5453 5453 5453 5454 5454 5454 5455 5455 5455 5454 5455 5455 5455 5455 5455 5455 5455 5455 5455 5454 5453 5453 5452 5451 5450 5448 5447 5446 5445 5444 5444 5442 5440 5437 5435 5433 5430 5428 5425 5422 5419 5415 5412 5409 5405 5401 5397 5393 5388 5384 5379 5374 5370 5366 5361 5357 5352 5347 5341 5336
5444 5443 5441 5440 5440 5439 5439 5439 5440 5441 5441 5442 5442 5443 5444 5445 5446 5446 5447 5447 5447 5447 5447 5448 5448 5448 5449 5449 5449 5450 5450 5450 5450 5450 5450 5450 5450 5450 5450 5450 5450 5450 5449 5449 5448 5447 5447 5446 5445 5444 5442 5441 5440 5439 5438 5438 5436 5433 5431 5428 5426 5423 5420 5417 5414 5410 5406 5403 5399 5396 5391 5388 5384 5379 5374 5370 5365 5360 5355 5350 5346 5341 5335 5330 5322
5439 5438 5437 5436 5435 5435 5434 5435 5435 5436 5436 5437 5438 5438 5439 5441 5442 5442 5442 5443 5443 5443 5443 5443 5444 5444 5444 5445 5445 5445 5446 5446 5446 5446 5445 5445 5445 5445 5445 5445 5445 5444 5444 5443 5443 5442 5441 5440 5439 5438 5437 5436 5435 5433 5432 5431 5429 5426 5424 5421 5418 5415 5412 5409 5406 5402 5398 5394 5390 5386 5382 5378 5374 5369 5365 5360 5354 5349 5344 5338 5333 5328 5322 5317 5310
5434 5433 5432 5431 5430 5430 5430 5430 5430 5431 5431 5432 5433 5434 5435 5436 5437 5437 5438 5439 5439 5439 5439 5439 5440 5440 5440 5440 5440 5441 5441 5442 5441 5441 5441 5440 5440 5440 5440 5440 5439 5439 5438 5438 5437 5436 5435 5434 5433 5432 5431 5430 5428 5426 5425 5424 5422 5420 5417 5414 5411 5408 5404 5401 5397 5394 5390 5386 5381 5377 5373 5369 5365 5360 5355 5350 5345 5339 5333 5327 5322 5316 5310 5304 5299
5430 5428 5427 5426 5426 5425 5425 5425 5426 5426 5427 5427 5428 5429 5429 5430 5431 5432 5433 5434 5434 5434 5435 5435 5435 5436 5436 5436 5436 5436 5437 5437 5437 5436 5436 5435 5435 5435 5435 5434 5434 5433 5433 5432 5432 5431 5430 5429 5427 5426 5425 5424 5422 5420 5418 5416 5414 5412 5410 5407 5404 5401 5397 5394 5390 5386 5382 5378 5374 5369 5365 5361 5357 5351 5346 5342 5336 5331 5325 5319 5312 5306 5300 5294 5287
5425 5424 5423 5422 5421 5421 5421 5421 5421 5421 5422 5422 5423 5423 5424 5425 5426 5427 5428 5429 5429 5430 5430 5430 5431 5431 5431 5431 5431 5431 5432 5432 5433 5432 5431 5430 5430 5430 5429 5429 5429 5428 5427 5427 5426 5425 5424 5423 5422 5420 5419 5418 5416 5414 5412 5410 5407 5405 5402 5399 5397 5394 5390 5387 5383 5379 5375 5371 5366 5362 5357 5353 5348 5343 5338 5332 5327 5321 5316 5311 5304 5297 5291 5286 5278
5420 5419 5418 5418 5417 5417 5416 5416 5416 5417 5417 5417 5418 5418 5419 5420 5421 5422 5423 5423 5424 5425 5425 5425 5426 5426 5427 5427 5427 5427 5427 5427 5428 5427 5426 5426 5425 5425 5424 5423 5423 5423 5422 5421 5421 5420 5419 5417 5416 5415 5413 5412 5410 5408 5406 5403 5401 5398 5395 5392 5389 5386 5383 5380 5376 5372 5368 5363 5359 5354 5348 5344 5339 5334 5329 5324 5317 5311 5305 5300 5294 5287 5281 5276 5270
5415 5415 5414 5413 5412 5412 5412 5412 5412 5412 5412 5413 5413 5414 5415 5415 5416 5417 5417 5418 5419 5419 5420 5421 5421 5422 5422 5422 5422 5422 5422 5422 5422 5422 5422 5421 5420 5419 5419 5418 5418 5417 5417 5416 5415 5414 5413 5412 5411 5409 5408 5406 5404 5402 5399 5397 5394 5391 5388 5385 5382 5379 5376 5373 5369 5365 5360 5355 5351 5346 5340 5335 5330 5324 5319 5314 5306 5300 5295 5290 5283 5276 5271 5267 5262
5410 5410 5409 5408 5408 5408 5407 5407 5408 5408 5408 5408 5409 5409 5410 5410 5411 5412 5412 5413 5413 5414 5415 5416 5416 5417 5417 5417 5417 5417 5417 5417 5416 5417 5417 5416 5415 5414 5413 5413 5412 5412 5411 5410 5409 5408 5407 5406 5404 5403 5401 5399 5397 5395 5393 5390 5388 5385 5382 5379 5376 5373 5369 5366 5361 5357 5353 5348 5343 5337 5332 5326 5321 5315 5309 5303 5296 5289 5284 5280 5275 5268 5263 5259 5256
5406 5405 5404 5404 5403 5403 5403 5403 5403 5403 5403 5404 5404 5405 5405 5406 5406 5407 5407 5408 5409 5409 5410 5411 5411 5412 5412 5412 5412 5412 5412 5411 5411 5411 5411 5411 5410 5409 5408 5408 5407 5406 5406 5405 5404 5402 5401 5400 5398 5396 5394 5393 5390 5388 5386 5384 5381 5379 5376 5373 5369 5365 5361 5358 5353 5349 5345 5340 5334 5329 5323 5317 5312 5306 5299 5293 5286 5280 5275 5271 5267 5262 5257 5252 5249
5401 5400 5400 5399 5399 5399 5399 5398 5399 5399 5399 5400 5400 5400 5401 5401 5402 5402 5403 5403 5404 5405 5406 5406 5407 5407 5407 5407 5407 5407 5407 5406 5406 5406 5405 5405 5405 5404 5403 5403 5402 5401 5400 5399 5398 5397 5395 5394 5392 5390 5388 5386 5384 5382 5380 5377 5375 5372 5369 5365 5362 5358 5354 5350 5345 5341 5336 5332 5326 5320 5315 5309 5303 5297 5292 5285 5279 5273 5267 5262 5259 5255 5250 5245 5241
5396 5396 5395 5395 5394 5394 5394 5394 5394 5395 5395 5395 5396 5396 5396 5397 5397 5398 5398 5399 5400 5400 5401 5402 5402 5402 5402 5402 5402 5402 5401 5401 5401 5400 5400 5399 5399 5399 5398 5397 5396 5395 5394 5393 5392 5391 5390 5388 5386 5385 5382 5380 5378 5376 5373 5371 5368 5365 5362 5358 5354 5350 5346 5341 5337 5332 5327 5322 5317 5312 5306 5301 5295 5289 5284 5279 5272 5266 5260 5256 5251 5247 5243 5238 5233
5391 5391 5391 5390 5390 5390 5390 5390 5390 5390 5391 5391 5391 5392 5392 5392 5393 5393 5394 5395 5395 5396 5396 5397 5397 5397 5397 5397 5397 5397 5396 5396 5396 5395 5395 5394 5394 5393 5393 5392 5391 5390 5389 5388 5387 5385 5384 5382 5381 5379 5377 5374 5372 5369 5366 5364 5360 5357 5354 5350 5347 5343 5338 5334 5329 5324 5319 5313 5308 5303 5298 5293 5288 5282 5277 5272 5267 5260 5255 5249 5245 5240 5236 5231 5227
5387 5386 5386 5386 5386 5386 5386 5386 5386 5386 5386 5387 5387 5387 5388 5388 5388 5389 5389 5390 5390 5391 5391 5392 5392 5392 5392 5392 5392 5391 5391 5391 5391 5390 5390 5389 5388 5388 5387 5386 5385 5384 5383 5382 5381 5380 5378 5376 5375 5373 5370 5368 5365 5362 5359 5356 5353 5349 5345 5342 5338 5335 5331 5326 5321 5316 5310 5305 5300 5295 5290 5285 5280 5275 5270 5265 5260 5255 5250 5244 5239 5234 5229 5224 5219
5382 5381 5381 5381 5381 5381 5381 5381 5381 5381 5382 5382 5382 5383 5383 5383 5384 5384 5385 5385 5386 5386 5386 5386 5386 5386 5387 5386 5386 5386 5386 5386 5385 5385 5384 5384 5383 5382 5382 5381 5380 5379 5377 5376 5375 5374 5372 5370 5368 5366 5363 5361 5358 5355 5352 5349 5345 5342 5338 5334 5330 5326 5322 5318 5313 5307 5302 5297 5292 5286 5281 5277 5272 5267 5262 5257 5253 5249 5244 5238 5232 5227 5223 5218 5213
5376 5376 5376 5376 5376 5376 5376 5376 5377 5377 5377 5377 5378 5378 5378 5379 5379 5380 5380 5380 5380 5381 5381 5381 5381 5381 5381 5381 5381 5381 5380 5380 5380 5379 5379 5378 5378 5377 5376 5375 5374 5373 5372 5370 5369 5368 5366 5364 5361 5359 5356 5354 5351 5348 5345 5342 5338 5335 5331 5327 5322 5318 5314 5309 5304 5299 5294 5289 5283 5278 5273 5268 5264 5260 5255 5250 5246 5242 5237 5231 5226 5221 5216 5212 5208
5371 5371 5371 5371 5371 5371 5371 5372 5372 5372 5372 5373 5373 5373 5373 5374 5374 5375 5375 5375 5375 5375 5376 5376 5376 5376 5376 5376 5376 5376 5375 5375 5374 5374 5373 5373 5372 5371 5371 5370 5368 5367 5366 5365 5363 5362 5360 5357 5355 5352 5350 5347 5345 5342 5338 5335 5331 5327 5323 5319 5314 5310 5305 5301 5296 5291 5286 5281 5276 5271 5266 5261 5257 5253 5249 5244 5239 5235 5230 5225 5220 5215 5210 5206 5202
5366 5366 5366 5366 5366 5366 5366 5367 5367 5367 5367 5368 5368 5368 5369 5369 5369 5370 5370 5370 5370 5370 5370 5370 5370 5370 5371 5371 5371 5370 5370 5370 5369 5369 5368 5367 5367 5366 5365 5364 5363 5361 5360 5359 5357 5355 5354 5351 5349 5346 5344 5341 5338 5334 5331 5327 5324 5320 5316 5311 5307 5302 5298 5293 5288 5283 5278 5273 5269 5264 5260 5255 5250 5246 5243 5239 5233 5229 5224 5219 5214 5209 5205 5200 5196
5360 5361 5361 5361 5361 5361 5361 5361 5362 5362 5362 5363 5363 5363 5364 5364 5364 5364 5365 5365 5365 5365 5365 5365 5365 5365 5365 5365 5365 5365 5365 5364 5364 5363 5362 5362 5361 5360 5359 5358 5357 5355 5354 5352 5351 5349 5347 5345 5343 5340 5337 5334 5330 5327 5323 5319 5316 5312 5308 5304 5299 5295 5290 5285 5280 5276 5271 5266 5261 5257 5253 5248 5244 5240 5237 5232 5227 5222 5217 5213 5208 5203 5199 5194 5191
5355 5355 5355 5355 5355 5356 5356 5356 5356 5357 5357 5357 5358 5358 5358 5358 5359 5359 5359 5360 5360 5360 5360 5360 5360 5360 5360 5360 5360 5360 5359 5359 5358 5358 5357 5356 5355 5354 5353 5352 5351 5349 5348 5346 5344 5342 5340 5338 5336 5333 5330 5327 5323 5319 5316 5312 5308 5304 5300 5296 5292 5287 5283 5278 5273 5268 5263 5259 5254 5251 5246 5242 5238 5234 5230 5226 5221 5216 5211 5207 5203 5199 5194 5189 5185
5349 5350 5350 5350 5350 5350 5350 5351 5351 5351 5352 5352 5352 5353 5353 5353 5354 5354 5354 5355 5355 5354 5355 5355 5355 5355 5355 5355 5355 5354 5354 5354 5353 5352 5351 5350 5349 5348 5347 5346 5344 5343 5341 5339 5337 5335 5333 5331 5329 5326 5323 5320 5316 5312 5309 5305 5301 5297 5293 5289 5284 5280 5275 5271 5266 5261 5257 5253 5248 5245 5241 5236 5232 5228 5224 5220 5216 5212 5207 5202 5198 5194 5190 5185 5181
5344 5344 5344 5344 5344 5344 5344 5345 5345 5346 5346 5346 5347 5347 5347 5348 5348 5349 5349 5349 5349 5349 5349 5350 5349 5349 5349 5349 5349 5349 5349 5348 5347 5346 5345 5345 5344 5342 5341 5340 5338 5336 5335 5333 5331 5328 5326 5324 5321 5319 5316 5313 5309 5305 5302 5298 5294 5290 5286 5282 5277 5272 5268 5263 5259 5255 5250 5247 5243 5239 5235 5231 5227 5223 5218 5214 5211 5206 5202 5198 5193 5189 5185 5182 5178
5338 5338 5338 5338 5338 5339 5339 5339 5339 5340 5340 5341 5341 5342 5342 5343 5343 5343 5344 5344 5344 5344 5344 5344 5344 5344 5344 5344 5344 5343 5343 5342 5342 5341 5340 5339 5338 5336 5335 5333 5332 5330 5328 5326 5324 5322 5319 5317 5314 5312 5309 5306 5302 5299 5295 5291 5287 5283 5278 5274 5270 5265 5261 5256 5253 5249 5245 5241 5237 5234 5230 5226 5222 5218 5213 5209 5205 5201 5197 5193 5189 5185 5181 5177 5174
5332 5332 5333 5333 5333 5333 5333 5333 5334 5334 5334 5335 5335 5336 5337 5337 5338 5338 5338 5338 5339 5338 5339 5339 5339 5338 5339 5339 5338 5338 5337 5337 5336 5335 5334 5333 5331 5330 5328 5327 5325 5323 5322 5320 5317 5315 5313 5310 5307 5305 5302 5299 5295 5292 5288 5284 5280 5275 5271 5266 5262 5258 5254 5250 5247 5243 5240 5236 5232 5229 5225 5220 5217 5213 5209 5205 5201 5197 5192 5188 5185 5181 5177 5174 5170
5326 5327 5327 5327 5327 5327 5327 5328 5328 5328 5329 5329 5330 5331 5331 5332 5332 5332 5332 5333 5333 5333 5333 5333 5333 5333 5333 5333 5333 5332 5332 5331 5330 5329 5328 5326 5325 5324 5322 5320 5319 5317 5315 5313 5311 5308 5306 5303 5300 5298 5295 5292 5288 5285 5281 5277 5273 5268 5264 5260 5256 5252 5249 5245 5242 5238 5235 5232 5228 5224 5220 5216 5212 5208 5204 5200 5197 5193 5189 5185 5181 5178 5174 5171 5167
5320 5321 5321 5321 5321 5322 5322 5322 5322 5323 5323 5324 5324 5325 5326 5326 5326 5326 5327 5327 5327 5327 5327 5327 5327 5327 5327 5327 5327 5326 5326 5325 5324 5322 5321 5320 5319 5317 5316 5314 5312 5310 5308 5306 5304 5301 5299 5296 5293 5291 5288 5284 5281 5277 5273 5269 5265 5262 5258 5254 5250 5247 5244 5241 5237 5234 5231 5228 5224 5219 5215 5212 5208 5204 5200 5197 5193 5190 5186 5182 5179 5175 5172 5168 5165
5314 5315 5315 5315 5316 5316 5316 5316 5317 5317 5318 5318 5319 5319 5320 5320 5320 5320 5321 5321 5321 5322 5322 5321 5321 5321 5321 5321 5321 5320 5319 5318 5317 5316 5315 5314 5313 5311 5309 5308 5306 5304 5302 5299 5297 5295 5292 5289 5286 5283 5280 5277 5273 5269 5266 5262 5259 5255 5252 5249 5245 5242 5239 5236 5233 5230 5226 5223 5219 5215 5211 5208 5204 5200 5197 5193 5190 5187 5183 5179 5176 5173 5170 5167 5164
5308 5309 5309 5309 5310 5310 5310 5311 5311 5312 5312 5312 5313 5313 5314 5314 5314 5315 5315 5315 5316 5316 5316 5315 5315 5315 5315 5315 5314 5314 5313 5312 5311 5310 5309 5308 5306 5305 5303 5301 5299 5297 5295 5293 5290 5288 5285 5282 5279 5275 5272 5269 5266 5263 5259 5256 5252 5249 5246 5243 5240 5237 5234 5231 5228 5225 5221 5218 5215 5211 5208 5204 5200 5197 5194 5190 5187 5184 5180 5177 5174 5171 5168 5165 5163
5302 5302 5303 5303 5304 5304 5305 5305 5305 5306 5306 5306 5307 5307 5308 5308 5309 5309 5309 5310 5310 5310 5310 5309 5309 5309 5309 5309 5308 5308 5307 5306 5305 5304 5303 5301 5300 5298 5297 5295 5293 5290 5288 5286 5283 5281 5278 5274 5271 5268 5265 5262 5259 5256 5253 5250 5246 5243 5240 5238 5235 5232 5229 5226 5223 5220 5217 5214 5210 5207 5204 5201 5197 5194 5191 5187 5184 5181 5178 5175 5172 5169 5167 5164 5162
5296 5297 5297 5297 5298 5298 5299 5299 5299 5300 5300 5301 5301 5302 5302 5302 5303 5303 5304 5304 5304 5304 5304 5304 5303 5303 5302 5302 5301 5301 5300 5299 5298 5297 5296 5295 5294 5292 5290 5288 5286 5283 5281 5279 5276 5274 5271 5268 5264 5261 5258 5255 5252 5249 5246 5244 5241 5238 5236 5233 5231 5228 5225 5222 5219 5216 5213 5210 5207 5204 5201 5198 5195 5191 5188 5185 5182 5179 5176 5173 5171 5168 5166 5164 5162
5290 5291 5291 5292 5292 5292 5293 5294 5294 5294 5295 5295 5295 5296 5296 5297 5297 5297 5298 5298 5298 5298 5298 5297 5297 5296 5296 5295 5295 5294 5293 5292 5291 5290 5289 5288 5287 5285 5283 5281 5279 5276 5274 5272 5269 5267 5264 5261 5258 5254 5251 5248 5246 5243 5241 5238 5236 5234 5232 5229 5227 5224 5222 5219 5216 5213 5210 5207 5204 5201 5198 5195 5192 5189 5186 5183 5180 5178 5175 5172 5170 5168 5166 5163 5161
5284 5285 5285 5286 5286 5286 5287 5288 5288 5288 5289 5289 5290 5290 5291 5291 5291 5291 5292 5292 5292 5292 5292 5291 5291 5290 5289 5289 5288 5287 5286 5285 5284 5284 5282 5281 5280 5278 5276 5274 5272 5270 5267 5265 5262 5260 5257 5254 5251 5248 5245 5242 5240 5238 5235 5233 5231 5229 5227 5225 5223 5220 5217 5215 5212 5209 5206 5204 5201 5198 5196 5193 5190 5187 5184 5181 5179 5176 5174 5172 5170 5168 5165 5163 5161
5278 5279 5279 5279 5280 5280 5281 5281 5282 5282 5283 5283 5284 5284 5284 5285 5285 5285 5285 5285 5285 5285 5285 5285 5284 5284 5283 5282 5281 5280 5279 5278 5278 5277 5276 5274 5273 5271 5269 5267 5265 5263 5260 5258 5255 5253 5250 5247 5245 5242 5239 5237 5235 5233 5231 5229 5227 5226 5224 5221 5219 5216 5213 5211 5208 5206 5203 5201 5198 5195 5193 5190 5187 5185 5182 5179 5177 5175 5173 5171 5170 5168 5166 5163 5161
5272 5273 5273 5273 5274 5274 5275 5275 5276 5276 5277 5277 5278 5278 5278 5278 5279 5279 5279 5279 5279 5279 5279 5278 5278 5277 5277 5276 5275 5274 5273 5272 5271 5270 5269 5267 5266 5264 5262 5260 5258 5256 5253 5251 5248 5246 5243 5241 5238 5236 5234 5232 5230 5228 5227 5225 5223 5222 5220 5217 5215 5212 5210 5207 5205 5202 5200 5198 5195 5193 5190 5188 5185 5183 5181 5178 5176 5175 5173 5171 5170 5168 5166 5164 5162